Wyoming Park, Ohio, United States
Lat: 39.24N, Lon: 84.46W
Wx Zone: OHZ077
Local Info
Past Weather Observations for Today

NOTE: This archive is for the closest National Weather Service station to Wyoming Park. Information may differ from the station used for current weather conditions.

Click here for Long-term Archive

Time Weather Temperature Dewpoint Humidity Pressure Winds Precip Visibility
22:53
Mostly Cloudy
37°F / 3°C 36°F / 2°C 93% 30.06 in
(1018 mb)
Calm - 10SM
21:53
Partly Cloudy
37°F / 3°C 34°F / 1°C 87% 30.06 in
(1018 mb)
Calm - 10SM
20:53
Clear
37°F / 3°C 34°F / 1°C 87% 30.06 in
(1018 mb)
Calm - 10SM
19:53
Clear
37°F / 3°C 34°F / 1°C 87% 30.06 in
(1018 mb)
Calm - 10SM
18:53
Clear
41°F / 5°C 34°F / 1°C 76% 30.09 in
(1019 mb)
Calm - 10SM
17:53
Clear
48°F / 9°C 36°F / 2°C 62% 30.09 in
(1019 mb)
Calm - 10SM
16:53
Clear
54°F / 12°C 34°F / 1°C 47% 30.09 in
(1019 mb)
Calm - 10SM
15:53
Clear
55°F / 13°C 34°F / 1°C 44% 30.09 in
(1019 mb)
Calm - 10SM
14:53
Clear
54°F / 12°C 34°F / 1°C 47% 30.09 in
(1019 mb)
Calm - 10SM
13:53
Clear
54°F / 12°C 34°F / 1°C 47% 30.12 in
(1020 mb)
NW 3.5 mph
(NW 6 kph)
- 10SM
12:53
Partly Cloudy
54°F / 12°C 34°F / 1°C 47% 30.12 in
(1020 mb)
N 4.6 mph
(N 7 kph)
- 9SM
12:42
Mostly Cloudy
Hazy
52°F / 11°C 34°F / 1°C 50% 30.15 in
(1021 mb)
Variable 3.5 mph
(Variable 6 kph)
- 1 3/4SM
11:53
Partly Cloudy
54°F / 12°C 34°F / 1°C 47% 30.15 in
(1021 mb)
Variable 3.5 mph
(Variable 6 kph)
- 10SM
10:53
Partly Cloudy
50°F / 10°C 34°F / 1°C 54% 30.18 in
(1022 mb)
SE 3.5 mph
(SE 6 kph)
- 10SM
09:53
Partly Cloudy
48°F / 9°C 36°F / 2°C 62% 30.18 in
(1022 mb)
Calm - 10SM
08:53
Mostly Cloudy
46°F / 8°C 37°F / 3°C 71% 30.18 in
(1022 mb)
Calm - 10SM
07:53
Overcast
43°F / 6°C 37°F / 3°C 81% 30.18 in
(1022 mb)
Calm - 10SM
06:53
Overcast
39°F / 4°C 37°F / 3°C 93% 30.18 in
(1022 mb)
Calm - 10SM
05:53
Overcast
41°F / 5°C 37°F / 3°C 87% 30.18 in
(1022 mb)
Calm - 10SM
04:53
Overcast
41°F / 5°C 39°F / 4°C 93% 30.15 in
(1021 mb)
Calm - 10SM
03:53
Mostly Cloudy
39°F / 4°C 36°F / 2°C 87% 30.15 in
(1021 mb)
Calm - 10SM
02:53
Overcast
45°F / 7°C 37°F / 3°C 76% 30.15 in
(1021 mb)
Calm - 10SM
01:53
Overcast
46°F / 8°C 36°F / 2°C 66% 30.15 in
(1021 mb)
NNW 6.9 mph
(NNW 11 kph)
- 10SM
00:53
Overcast
46°F / 8°C 36°F / 2°C 66% 30.15 in
(1021 mb)
NNW 4.6 mph
(NNW 7 kph)
- 10SM
Time Weather Temperature Dewpoint Humidity Pressure Winds Precip Visibility


Weather for websites

WeatherForYou.com, LLC is not responsible for any damages or problems caused by this service. Current weather conditions are obtained from the closest station including government and personal stations which may have varying degrees of accuracy. Weather forecasts are derived from the NOAA NDFD. Like all things, this site belongs to Jesus Christ... He just trusts me to maintain it. If you have any questions or comments email webmaster@weatherforyou.com

Copyright © 2014, WeatherForYou.com LLC. All rights reserved.